This demonstration page uses our WeatherBlox Daily Observations layout. Learn more.

Left ArrowRight Arrow

31.31129, -92.44514

Hourly Observations for August 13, 2016

Temp ( °F °C ) Dew Point ( °F °C ) Humidity (%) Winds ( mph kmh ) Pressure ( in mb ) Visibility ( mi km ) Precip ( " mm )
12:53 am 00:53 Cloudy 77 25 77 25 100 100 WSW 6 9 29.77 1008 9 14 0.00 0.03
1:33 am 01:33 Cloudy 77 25 76 24.4 96 96 NW 3 6 29.77 1008 9 14 0.00 0.00
1:42 am 01:42 Cloudy 77 25 76 24.4 96 96 WNW 3 6 29.77 1008 9 14 0.00 0.00
1:53 am 01:53 Cloudy 77 25 77 25 100 100 Calm 29.76 1008 9 14 0.00 0.00
2:53 am 02:53 Mostly Cloudy 77 25 77 25 100 100 W 3 6 29.74 1007 8 13 0.00 0.00
3:53 am 03:53 Cloudy 77 25 77 25 100 100 WNW 5 7 29.72 1007 7 11 0.00 0.00
4:53 am 04:53 Mostly Cloudy 77 25 77 25 100 100 NW 5 7 29.73 1007 8 13 0.00 0.00
5:03 am 05:03 Cloudy 78 25.6 77 25 97 97 Calm 29.74 1007 7 11 0.00 0.00
5:14 am 05:14 Cloudy 78 25.6 77 25 97 97 N 5 7 29.74 1007 7 11 0.00 0.00
5:21 am 05:21 Cloudy 78 25.6 77 25 97 97 N 6 9 29.74 1007 7 11 0.00 0.00
5:53 am 05:53 Cloudy with Light Rain 77 25 77 25 100 100 WNW 3 6 29.74 1007 7 11 0.06 1.52
6:00 am 06:00 Cloudy 78 25.6 77 25 97 97 NNW 6 9 29.74 1007 7 11 0.00 0.03
6:24 am 06:24 Cloudy 78 25.6 77 25 97 97 N 3 6 29.74 1007 7 11 0.00 0.03
6:46 am 06:46 Cloudy with Mist and Fog 78 25.6 77 25 97 97 NNE 3 6 29.74 1007 5 8 0.00 0.03
6:53 am 06:53 Cloudy with Mist and Fog 78 25.6 77 25 97 97 Calm 29.76 1008 5 8 0.00 0.03
7:01 am 07:01 Cloudy with Mist and Fog 78 25.6 77 25 97 97 SSE 3 6 29.77 1008 5 8 0.00 0.00
7:07 am 07:07 Cloudy with Mist and Fog 78 25.6 77 25 97 97 SE 3 6 29.77 1008 5 8 0.00 0.00
7:43 am 07:43 Cloudy 75 23.9 75 23.9 100 100 S 7 11 29.77 1008 10 16 0.00 0.00
7:53 am 07:53 Cloudy 75 23.9 75 23.9 100 100 S 6 9 29.78 1008 10 16 0.00 0.00
8:53 am 08:53 Cloudy with Mist and Fog 76 24.4 75 23.9 97 97 SE 5 7 29.79 1009 6 10 0.00 0.03
9:28 am 09:28 Cloudy 76 24.4 75 23.9 97 97 SE 7 11 29.80 1009 10 16 0.00 0.00
9:53 am 09:53 Cloudy with Light Rain 76 24.4 75 23.9 97 97 SSE 6 9 29.79 1009 8 13 0.00 0.03
10:53 am 10:53 Cloudy 79 26.1 76 24.4 90 90 S 6 9 29.80 1009 10 16 0.01 0.25
11:29 am 11:29 Mostly Cloudy 80 26.7 77 25 90 90 S 8 13 29.80 1009 10 16 0.00 0.00
11:36 am 11:36 Mostly Cloudy 80 26.7 77 25 90 90 S 7 11 29.80 1009 10 16 0.00 0.00
11:53 am 11:53 Cloudy 80 26.7 77 25 90 90 SSE 7 11 29.80 1009 10 16 0.00 0.00
12:29 pm 12:29 Cloudy 81 27.2 78 25.6 91 91 S 7 11 29.80 1009 10 16 0.00 0.00
12:36 pm 12:36 Cloudy 81 27.2 77 25 88 88 S 7 11 29.80 1009 10 16 0.00 0.00
12:53 pm 12:53 Cloudy 81 27.2 77 25 88 88 S 7 11 29.80 1009 10 16 0.00 0.00
1:34 pm 13:34 Cloudy 79 26.1 77 25 94 94 SSE 7 11 29.80 1009 10 16 0.00 0.00
1:51 pm 13:51 Cloudy with Light Rain 79 26 75 24 89 89 S 7 11 29.80 1009 9 14 0.00 0.03
1:52 pm 13:52 Cloudy with Light Rain 79 26.1 76 24.4 90 90 S 7 11 29.79 1009 9 14 0.00 0.03
2:00 pm 14:00 Cloudy 79 26.1 76 24.4 90 90 S 8 13 29.77 1008 10 16 0.00 0.03
2:53 pm 14:53 Cloudy with Light Rain 79 26.1 76 24.4 90 90 SSE 6 9 29.78 1008 10 16 0.00 0.03
3:00 pm 15:00 Cloudy with Light Rain 79 26.1 76 24.4 90 90 S 7 11 29.77 1008 10 16 0.00 0.03
3:22 pm 15:22 Cloudy with Heavy Rain 78 25.6 76 24.4 93 93 S 7 11 29.77 1008 2 3 0.06 1.52
3:25 pm 15:25 Cloudy with Heavy Rain 78 25.6 76 24.4 93 93 SSE 8 13 29.77 1008 1 2 0.12 3.05
3:46 pm 15:46 Cloudy with Light Rain 78 25.6 77 25 97 97 SSE 10 17 29.74 1007 3 5 0.21 5.33
3:53 pm 15:53 Cloudy with Light Rain 78 25.6 77 25 97 97 SSE 9 15 29.76 1008 8 13 0.22 5.59
4:29 pm 16:29 Cloudy with Rain 77 25 76 24.4 96 96 SSE 8 13 29.74 1007 4 6 0.03 0.76
4:31 pm 16:31 Cloudy with Heavy Rain 77 25 76 24.4 96 96 SE 8 13 29.74 1007 3 4 0.08 2.03
4:35 pm 16:35 Cloudy with Heavy Rain 77 25 77 25 100 100 SSE 5 7 29.74 1007 1 1 0.21 5.33
4:39 pm 16:39 Cloudy with Heavy Rain 77 25 77 25 100 100 SE 3 6 29.74 1007 0 0 0.34 8.64
4:49 pm 16:49 Cloudy with Heavy Rain 77 25 77 25 100 100 SE 9 15 29.74 1007 1 1 0.68 17.27
4:53 pm 16:53 Cloudy with Heavy Rain 77 25 77 25 100 100 SE 10 17 29.75 1008 1 1 0.74 18.80
5:00 pm 17:00 Cloudy with Heavy Rain 77 25 77 25 100 100 SE 10 17 29.74 1007 1 2 0.07 1.78
5:10 pm 17:10 Cloudy with Rain 77 25 77 25 100 100 SE 10 17 29.74 1007 2 3 0.11 2.79
5:21 pm 17:21 Cloudy with Light Rain 77 25 77 25 100 100 SE 10 17 29.74 1007 5 8 0.11 2.79
5:50 pm 17:50 Cloudy 77 25 77 25 100 100 S 10 17 29.74 1007 9 14 0.12 3.05
5:53 pm 17:53 Cloudy 77 25 77 25 100 100 S 14 22 29.75 1008 10 16 0.12 3.05
6:00 pm 18:00 Cloudy 77 25 76 24.4 96 96 S 10 17 29.74 1007 9 14 0.00 0.00
6:46 pm 18:46 Cloudy with Light Rain 76 24.4 75 23.9 97 97 S 13 20 29.74 1007 8 13 0.00 0.03
6:53 pm 18:53 Cloudy with Light Rain 76 24.4 75 23.9 97 97 S 12 19 29.76 1008 10 16 0.00 0.03
7:12 pm 19:12 Cloudy 76 24.4 75 23.9 97 97 S 13 20 29.77 1008 9 14 0.00 0.03
7:53 pm 19:53 Cloudy 76 24.4 75 23.9 97 97 S 10 17 29.78 1009 10 16 0.00 0.03
8:27 pm 20:27 Cloudy with Light Rain 76 24.4 75 23.9 97 97 S 9 15 29.80 1009 6 10 0.01 0.25
8:42 pm 20:42 Cloudy with Light Rain 75 23.9 75 23.9 100 100 SSE 8 13 29.80 1009 5 8 0.03 0.76
8:49 pm 20:49 Cloudy with Heavy Rain 75 24 75 24 100 100 SSE 8 13 29.80 1009 3 4 0.07 1.78
8:53 pm 20:53 Cloudy with Heavy Rain 75 23.9 75 23.9 100 100 SSE 9 15 29.80 1009 2 3 0.10 2.54
8:58 pm 20:58 Cloudy with Heavy Rain 75 23.9 75 23.9 100 100 SSE 12 19 29.80 1009 2 3 0.08 2.03
9:27 pm 21:27 Cloudy with Heavy Rain 75 23.9 75 23.9 100 100 S 9 15 29.80 1009 2 2 0.64 16.26
9:39 pm 21:39 Cloudy with Heavy Rain 75 23.9 75 23.9 100 100 S 7 11 29.83 1010 2 3 0.74 18.80
9:53 pm 21:53 Cloudy with Rain 75 23.9 75 23.9 100 100 S 7 11 29.83 1010 4 6 0.81 20.57
10:50 pm 22:50 Cloudy with Light Rain 75 24 75 24 100 100 S 7 11 29.83 1010 7 11 0.12 3.05
10:53 pm 22:53 Cloudy with Light Rain 75 23.9 75 23.9 100 100 S 8 13 29.84 1010 8 13 0.12 3.05
11:11 pm 23:11 Cloudy with Light Rain 75 23.9 75 23.9 100 100 S 8 13 29.83 1010 10 16 0.01 0.25
11:31 pm 23:31 Cloudy with Light Rain 75 23.9 75 23.9 100 100 S 6 9 29.83 1010 8 13 0.01 0.25
11:53 pm 23:53 Cloudy with Light Rain 75 23.9 75 23.9 100 100 S 6 9 29.84 1010 6 10 0.03 0.76

Powered by AerisWeather